EW6709 Weather Reports


Display with metric or nautical units.
time (UTC)temp
F
wind
direction
speed
MPH
gust
MPH
rain 1hr
in
rain 24hr
in
rain mn
in
humidity
%
barometer
mb
20190419081624 67 279 1.0 6.0 0.00 0.00 0.00 91 1010.2
20190419080045 67 201 0.0 7.0 0.00 0.00 0.00 90 1010.4
20190419074540 67 161 1.0 5.0 0.00 0.00 0.00 90 1010.5
20190419073046 66 157 2.0 7.0 0.00 0.00 0.00 90 1010.8
20190419071527 66 302 2.0 8.0 0.00 0.00 0.00 89 1011.0
20190419070054 66 167 2.0 6.0 0.00 0.00 0.00 88 1011.2
20190419064530 66 190 4.0 7.0 0.00 0.00 0.00 88 1011.5
20190419063039 66 178 1.0 8.0 0.00 0.00 0.00 88 1011.8
20190419061548 66 171 2.0 8.0 0.00 0.00 0.00 87 1012.1
20190419060037 66 180 1.0 6.0 0.00 0.00 0.00 86 1012.2
20190419054539 66 174 0.0 8.0 0.00 0.00 0.00 85 1012.5
20190419053033 66 217 1.0 5.0 0.00 0.00 0.00 85 1012.8
20190419051509 66 213 1.0 8.0 0.00 0.00 0.00 84 1012.9
20190419050005 66 128 1.0 5.0 0.00 0.00 0.00 83 1013.2
20190419044508 66 171 1.0 7.0 0.00 0.00 0.00 82 1013.4
20190419043125 67 186 2.0 6.0 0.00 0.00 0.00 81 1013.5
20190419041656 67 208 2.0 6.0 0.00 0.00 0.00 81 1013.7
20190419040120 67 192 1.0 7.0 0.00 0.00 0.00 80 1013.6
20190419034639 68 165 2.0 7.0 0.00 0.00 0.00 79 1013.6
20190419033139 68 97 0.0 9.0 0.00 0.00 0.00 78 1013.6
20190419031633 68 165 3.0 8.0 0.00 0.00 0.00 77 1013.6
20190419030149 68 360 4.0 10.0 0.00 0.00 0.00 76 1013.7
20190419024625 69 213 2.0 7.0 0.00 0.00 0.00 75 1013.8
20190419023138 69 175 0.0 7.0 0.00 0.00 0.00 73 1013.8
20190419021614 70 194 1.0 8.0 0.00 0.00 0.00 72 1014.1
20190419020220 70 234 5.0 12.0 0.00 0.00 0.00 70 1014.2
20190419014604 71 212 2.0 10.0 0.00 0.00 0.00 69 1014.2
20190419013123 71 198 4.0 12.0 0.00 0.00 0.00 68 1013.8
20190419011604 71 188 1.0 8.0 0.00 0.00 0.00 66 1013.4
20190419010116 72 126 3.0 11.0 0.00 0.00 0.00 65 1013.0
20190419004621 72 43 0.0 7.0 0.00 0.00 0.00 65 1012.9
20190419003107 73 157 0.0 5.0 0.00 0.00 0.00 64 1012.8
20190419001607 73 217 0.0 8.0 0.00 0.00 0.00 63 1013.0
20190419000139 74 227 1.0 2.0 0.00 0.00 0.00 61 1012.7
20190418234615 75 173 0.0 5.0 0.00 0.00 0.00 58 1012.7
20190418233152 76 174 2.0 8.0 0.00 0.00 0.00 57 1012.7
20190418231659 77 135 1.0 6.0 0.00 0.00 0.00 55 1012.6
20190418230121 77 221 2.0 12.0 0.00 0.00 0.00 54 1012.6
20190418224557 78 219 5.0 10.0 0.00 0.00 0.00 53 1012.6
20190418223113 78 171 1.0 8.0 0.00 0.00 0.00 52 1012.7
20190418221628 79 208 3.0 9.0 0.00 0.00 0.00 52 1012.9
20190418220119 79 157 5.0 11.0 0.00 0.00 0.00 49 1013.1
20190418214648 79 211 2.0 14.0 0.00 0.00 0.00 52 1013.3
20190418213109 80 134 4.0 14.0 0.00 0.00 0.00 48 1013.3
20190418211545 80 225 4.0 10.0 0.00 0.00 0.00 48 1013.7
20190418210110 79 232 2.0 10.0 0.00 0.00 0.00 50 1013.6
20190418204605 80 190 4.0 20.0 0.00 0.00 0.00 48 1013.9
20190418191538 79 181 2.0 11.0 0.00 0.00 0.00 51 1015.3
20190418190024 79 169 5.0 16.0 0.00 0.00 0.00 48 1015.5
20190418184513 79 182 4.0 11.0 0.00 0.00 0.00 49 1015.8
20190418181509 78 219 2.0 11.0 0.00 0.00 0.00 51 1016.3
20190418180005 78 150 6.0 14.0 0.00 0.00 0.00 49 1016.5
20190418174502 77 159 5.0 12.0 0.00 0.00 0.00 50 1016.7
20190418173147 77 161 6.0 15.0 0.00 0.00 0.00 51 1017.1
20190418171625 76 191 3.0 14.0 0.00 0.00 0.00 51 1017.3
20190418170151 76 232 4.0 12.0 0.00 0.00 0.00 52 1017.3
20190418164610 75 175 4.0 12.0 0.00 0.00 0.00 55 1017.2
20190418163144 74 236 3.0 9.0 0.00 0.00 0.00 57 1017.3
20190418161625 74 252 4.0 13.0 0.00 0.00 0.00 58 1017.7
20190418160114 73 167 4.0 11.0 0.00 0.00 0.00 62 1017.7
20190418154844 73 161 4.0 11.0 0.00 0.00 0.00 64 1017.9
20190418153054 72 88 2.0 11.0 0.00 0.00 0.00 66 1018.1
20190418151546 71 204 1.0 12.0 0.00 0.00 0.00 69 1018.3
20190418150120 71 233 1.0 8.0 0.00 0.00 0.00 70 1018.5
20190418144554 70 250 4.0 11.0 0.00 0.00 0.00 72 1018.6
20190418143037 68 223 2.0 10.0 0.00 0.00 0.00 75 1018.4
20190418141532 68 206 5.0 11.0 0.00 0.00 0.00 75 1018.3
20190418140016 66 239 0.0 7.0 0.00 0.00 0.00 79 1018.4
20190418134513 65 234 4.0 8.0 0.00 0.00 0.00 79 1018.3
20190418133004 65 238 2.0 9.0 0.00 0.00 0.00 80 1018.2
20190418131654 64 226 1.0 6.0 0.00 0.00 0.00 80 1018.2
20190418130157 64 231 2.0 6.0 0.00 0.00 0.00 81 1017.9
20190418124659 63 148 0.0 5.0 0.00 0.00 0.00 82 1017.9
20190418123222 63 232 1.0 4.0 0.00 0.00 0.00 81 1017.8
20190418121631 62 167 1.0 5.0 0.00 0.00 0.00 83 1017.9
20190418120313 61 157 0.0 3.0 0.00 0.00 0.00 85 1017.5
20190418114607 60 183 0.0 4.0 0.00 0.00 0.00 85 1017.3
20190418113110 60 170 0.0 3.0 0.00 0.00 0.00 84 1017.2
20190418111613 60 247 0.0 2.0 0.00 0.00 0.00 85 1017.1
20190418110121 60 235 0.0 7.0 0.00 0.00 0.00 86 1016.9
20190418104625 60 202 0.0 3.0 0.00 0.00 0.00 86 1016.9
20190418103106 60 186 0.0 5.0 0.00 0.00 0.00 87 1016.6
20190418101612 60 94 0.0 3.0 0.00 0.00 0.00 87 1016.6
20190418100103 59 164 1.0 5.0 0.00 0.00 0.00 89 1016.5
20190418094642 59 167 0.0 1.0 0.00 0.00 0.00 88 1016.3
20190418093124 60 153 0.0 1.0 0.00 0.00 0.00 86 1016.3
20190418090109 60 166 0.0 3.0 0.00 0.00 0.00 88 1016.2
20190418084616 59 142 0.0 4.0 0.00 0.00 0.00 89 1016.3
20190418083130 59 165 0.0 5.0 0.00 0.00 0.00 89 1016.5